TimeCST,TemperatureF,Dew PointF,Humidity,Sea Level PressureIn,VisibilityMPH,Wind Direction,Wind SpeedMPH,Gust SpeedMPH,PrecipitationIn,Events,Conditions,WindDirDegrees,DateUTC
12:15 AM,33.8,24.8,70,30.29,10.0,Calm,Calm,-,N/A,,Clear,0,2013-11-19 06:15:00
12:35 AM,32.0,23.0,69,30.29,10.0,Calm,Calm,-,N/A,,Clear,0,2013-11-19 06:35:00
12:55 AM,33.8,24.8,70,30.29,10.0,Calm,Calm,-,N/A,,Clear,0,2013-11-19 06:55:00
1:15 AM,32.0,24.8,75,30.29,10.0,Calm,Calm,-,N/A,,Clear,0,2013-11-19 07:15:00
1:35 AM,30.2,24.8,80,30.29,10.0,ESE,3.5,-,N/A,,Clear,110,2013-11-19 07:35:00
1:55 AM,30.2,24.8,80,30.29,10.0,Calm,Calm,-,N/A,,Clear,0,2013-11-19 07:55:00
2:15 AM,30.2,24.8,80,30.29,10.0,Calm,Calm,-,N/A,,Clear,0,2013-11-19 08:15:00
2:35 AM,30.2,24.8,80,30.30,10.0,Calm,Calm,-,N/A,,Clear,0,2013-11-19 08:35:00
2:55 AM,30.2,24.8,80,30.30,5.0,ESE,3.5,-,N/A,,Clear,110,2013-11-19 08:55:00
3:15 AM,30.2,24.8,80,30.30,3.0,Calm,Calm,-,N/A,,Clear,0,2013-11-19 09:15:00
3:35 AM,30.2,24.8,80,30.30,2.5,ENE,3.5,-,N/A,,Clear,70,2013-11-19 09:35:00
3:55 AM,30.2,24.8,80,30.29,5.0,East,3.5,-,N/A,,Clear,80,2013-11-19 09:55:00
4:15 AM,30.2,24.8,80,30.29,7.0,SE,3.5,-,N/A,,Clear,130,2013-11-19 10:15:00
4:35 AM,30.2,24.8,80,30.30,5.0,Calm,Calm,-,N/A,,Clear,0,2013-11-19 10:35:00
4:55 AM,32.0,24.8,75,30.29,3.0,Calm,Calm,-,N/A,,Clear,0,2013-11-19 10:55:00
5:15 AM,30.2,24.8,80,30.29,10.0,Calm,Calm,-,N/A,,Clear,0,2013-11-19 11:15:00
5:35 AM,32.0,24.8,75,30.30,10.0,Calm,Calm,-,N/A,,Clear,0,2013-11-19 11:35:00
5:55 AM,30.2,26.6,86,30.29,4.0,ESE,3.5,-,N/A,,Clear,120,2013-11-19 11:55:00
6:15 AM,30.2,26.6,86,30.29,3.0,East,3.5,-,N/A,,Clear,100,2013-11-19 12:15:00
6:35 AM,32.0,26.6,80,30.30,7.0,SE,3.5,-,N/A,,Clear,130,2013-11-19 12:35:00
6:55 AM,32.0,24.8,75,30.30,3.0,SE,3.5,-,N/A,,Clear,140,2013-11-19 12:55:00
7:15 AM,32.0,26.6,80,30.30,5.0,ESE,3.5,-,N/A,,Clear,120,2013-11-19 13:15:00
7:35 AM,32.0,26.6,80,30.30,2.0,East,3.5,-,N/A,,Clear,100,2013-11-19 13:35:00
7:55 AM,33.8,28.4,81,30.30,9.0,ESE,3.5,-,N/A,,Clear,120,2013-11-19 13:55:00
8:15 AM,35.6,28.4,75,30.30,9.0,ESE,3.5,-,N/A,,Clear,120,2013-11-19 14:15:00
8:35 AM,37.4,28.4,70,30.31,5.0,SE,4.6,-,N/A,,Clear,140,2013-11-19 14:35:00
8:55 AM,41.0,28.4,61,30.31,6.0,SE,6.9,-,N/A,,Clear,140,2013-11-19 14:55:00
9:15 AM,44.6,30.2,57,30.31,10.0,SE,6.9,-,N/A,,Clear,140,2013-11-19 15:15:00
9:35 AM,48.2,30.2,50,30.31,10.0,SE,8.1,-,N/A,,Clear,140,2013-11-19 15:35:00
9:55 AM,51.8,30.2,44,30.30,10.0,SE,10.4,-,N/A,,Clear,130,2013-11-19 15:55:00
10:15 AM,51.8,28.4,41,30.31,10.0,SE,11.5,16.1,N/A,,Clear,140,2013-11-19 16:15:00
10:35 AM,51.8,28.4,41,30.30,10.0,SSE,10.4,-,N/A,,Clear,150,2013-11-19 16:35:00
10:55 AM,53.6,28.4,38,30.30,10.0,SSE,11.5,-,N/A,,Clear,160,2013-11-19 16:55:00
11:15 AM,51.8,28.4,41,30.28,10.0,SE,9.2,-,N/A,,Clear,130,2013-11-19 17:15:00
11:35 AM,51.8,28.4,41,30.28,10.0,SSE,8.1,-,N/A,,Clear,150,2013-11-19 17:35:00
11:55 AM,53.6,28.4,38,30.27,10.0,SSE,8.1,-,N/A,,Clear,150,2013-11-19 17:55:00
12:15 PM,53.6,28.4,38,30.25,10.0,SSE,11.5,-,N/A,,Clear,150,2013-11-19 18:15:00
12:35 PM,53.6,26.6,35,30.24,10.0,SSE,8.1,-,N/A,,Clear,150,2013-11-19 18:35:00
12:55 PM,55.4,26.6,33,30.23,10.0,SSE,11.5,-,N/A,,Clear,160,2013-11-19 18:55:00
1:15 PM,53.6,24.8,33,30.22,10.0,SE,10.4,17.3,N/A,,Clear,140,2013-11-19 19:15:00
1:35 PM,55.4,24.8,31,30.22,10.0,ESE,9.2,16.1,N/A,,Clear,120,2013-11-19 19:35:00
1:55 PM,55.4,26.6,33,30.20,10.0,SE,11.5,-,N/A,,Clear,140,2013-11-19 19:55:00
2:15 PM,57.2,26.6,31,30.19,10.0,East,9.2,-,N/A,,Clear,100,2013-11-19 20:15:00
2:35 PM,57.2,26.6,31,30.18,10.0,SE,9.2,-,N/A,,Clear,130,2013-11-19 20:35:00
2:55 PM,57.2,26.6,31,30.18,10.0,SSE,9.2,-,N/A,,Clear,150,2013-11-19 20:55:00
3:15 PM,57.2,21.2,25,30.17,10.0,SSE,10.4,16.1,N/A,,Clear,160,2013-11-19 21:15:00
3:35 PM,57.2,19.4,23,30.18,10.0,SE,9.2,16.1,N/A,,Clear,130,2013-11-19 21:35:00
3:55 PM,57.2,17.6,21,30.17,10.0,ESE,9.2,-,N/A,,Clear,120,2013-11-19 21:55:00
4:15 PM,55.4,17.6,23,30.16,10.0,ESE,9.2,-,N/A,,Clear,120,2013-11-19 22:15:00
4:35 PM,55.4,17.6,23,30.16,10.0,ESE,9.2,-,N/A,,Clear,120,2013-11-19 22:35:00
4:55 PM,53.6,17.6,24,30.15,10.0,ESE,8.1,-,N/A,,Clear,110,2013-11-19 22:55:00
5:15 PM,53.6,15.8,22,30.14,10.0,ESE,5.8,-,N/A,,Clear,120,2013-11-19 23:15:00
5:35 PM,51.8,17.6,26,30.14,10.0,ESE,6.9,-,N/A,,Clear,120,2013-11-19 23:35:00
5:55 PM,51.8,17.6,26,30.15,10.0,SE,6.9,-,N/A,,Clear,140,2013-11-19 23:55:00
6:15 PM,51.8,17.6,26,30.16,10.0,SE,5.8,-,N/A,,Clear,140,2013-11-20 00:15:00
6:35 PM,50.0,17.6,28,30.15,10.0,SE,4.6,-,N/A,,Clear,140,2013-11-20 00:35:00
6:55 PM,48.2,17.6,30,30.15,10.0,SE,5.8,-,N/A,,Clear,130,2013-11-20 00:55:00
7:15 PM,48.2,17.6,30,30.15,10.0,SE,5.8,-,N/A,,Partly Cloudy,130,2013-11-20 01:15:00
7:35 PM,48.2,17.6,30,30.15,10.0,SE,6.9,-,N/A,,Clear,130,2013-11-20 01:35:00
7:55 PM,48.2,19.4,32,30.14,10.0,SE,5.8,-,N/A,,Scattered Clouds,130,2013-11-20 01:55:00
8:15 PM,46.4,19.4,34,30.14,10.0,SE,9.2,-,N/A,,Mostly Cloudy,140,2013-11-20 02:15:00
8:35 PM,48.2,19.4,32,30.14,10.0,SE,6.9,-,N/A,,Overcast,130,2013-11-20 02:35:00
8:55 PM,48.2,19.4,32,30.15,10.0,SE,8.1,-,N/A,,Overcast,140,2013-11-20 02:55:00
9:15 PM,48.2,19.4,32,30.15,10.0,SE,8.1,-,N/A,,Overcast,140,2013-11-20 03:15:00
9:35 PM,48.2,19.4,32,30.15,10.0,SSE,9.2,-,N/A,,Overcast,150,2013-11-20 03:35:00
9:55 PM,48.2,19.4,32,30.15,10.0,SE,8.1,-,N/A,,Overcast,130,2013-11-20 03:55:00
10:15 PM,48.2,19.4,32,30.14,10.0,SE,6.9,17.3,N/A,,Overcast,130,2013-11-20 04:15:00
10:35 PM,46.4,21.2,37,30.14,10.0,SE,10.4,-,N/A,,Overcast,140,2013-11-20 04:35:00
10:55 PM,46.4,21.2,37,30.14,10.0,SE,9.2,-,N/A,,Overcast,140,2013-11-20 04:55:00
11:15 PM,46.4,19.4,34,30.13,10.0,SE,9.2,16.1,N/A,,Overcast,130,2013-11-20 05:15:00
11:35 PM,46.4,19.4,34,30.12,10.0,SE,9.2,17.3,N/A,,Overcast,140,2013-11-20 05:35:00
11:55 PM,46.4,17.6,32,30.12,10.0,SE,9.2,-,N/A,,Overcast,130,2013-11-20 05:55:00